Bay City, TX

7:22 PM CDT on June 28, 2017 (GMT -0500)
Bay City

Weather History for KBYY - October, 2012

Change the Weather History Date:

Monday, October 29, 2012

  Actual Average (KLBX) Record (KLBX)
Temperature  
Mean Temperature 58 °F -  
Max Temperature 74 °F 75 °F 86 °F (2004)
Min Temperature 41 °F 58 °F 37 °F (2008)
Degree Days  
Heating Degree Days 8    
Growing Degree Days 8 (Base 50)    
Moisture  
Dew Point 37 °F    
Average Humidity 57    
Maximum Humidity 90    
Minimum Humidity 21    
Precipitation  
Precipitation 0.00 in - - ()
Sea Level Pressure  
Sea Level Pressure 30.21 in    
Wind  
Wind Speed 3 mph (NE)    
Max Wind Speed 13 mph    
Max Gust Speed 16 mph    
Visibility 10 miles    
Events      
Averages and records for this station are not official NWS values.
T = Trace of Precipitation, MM = Missing Value Source: NWS Daily Summary

Daily Weather History Graph

Daily Weather History Graph

Search for Another Location

Airport or City:

Trip Planner

Search our weather history database for the weather conditions in past years. The results will help you decide how hot, cold, wet, or windy it might be!

Date:

Astronomy

Oct. 29, 2012 Rise Set
Actual Time 7:34 AM CDT 6:39 PM CDT
Civil Twilight 7:09 AM CDT 7:04 PM CDT
Nautical Twilight 6:41 AM CDT 7:31 PM CDT
Astronomical Twilight 6:14 AM CDT 7:59 PM CDT
Moon 6:36 PM CDT 7:23 AM CDT
Length of Visible Light 11h 54m
Length of Day
11h 05m
Full, 100% of the Moon is Illuminated
Oct 29
Full
Oct 29
Full
Nov 6
Last Quarter
Nov 13
New
Nov 20
First Quarter

Hourly Weather History & Observations

Time (CDT) Temp. Windchill Dew Point Humidity Pressure Visibility Wind Dir Wind Speed Gust Speed Precip Events Conditions
12:15 AM 44.4 °F - 38.3 °F 79% 30.22 in 10.0 mi Calm Calm - N/A   Clear
12:35 AM 45.0 °F - 38.5 °F 78% 30.22 in 10.0 mi Calm Calm - N/A   Clear
12:55 AM 44.8 °F - 38.3 °F 78% 30.22 in 10.0 mi Calm Calm - N/A   Clear
1:15 AM 45.3 °F - 38.3 °F 76% 30.22 in 10.0 mi Calm Calm - N/A   Clear
1:35 AM 44.8 °F - 37.9 °F 77% 30.22 in 10.0 mi Calm Calm - N/A   Clear
1:55 AM 44.4 °F - 38.3 °F 79% 30.21 in 10.0 mi Calm Calm - N/A   Clear
2:15 AM 44.8 °F - 38.3 °F 78% 30.22 in 10.0 mi Calm Calm - N/A   Clear
2:35 AM 43.5 °F 40.9 °F 38.3 °F 82% 30.21 in 10.0 mi NNE 4.6 mph - N/A   Clear
2:55 AM 43.9 °F - 38.5 °F 81% 30.21 in 10.0 mi Calm Calm - N/A   Clear
3:15 AM 44.8 °F - 37.9 °F 77% 30.21 in 10.0 mi Calm Calm - N/A   Clear
3:35 AM 45.3 °F 44.0 °F 37.8 °F 75% 30.21 in 10.0 mi NNW 3.5 mph - N/A   Clear
3:55 AM 44.8 °F - 37.8 °F 76% 30.21 in 10.0 mi Calm Calm - N/A   Clear
4:15 AM 44.6 °F 43.1 °F 37.8 °F 77% 30.21 in 10.0 mi North 3.5 mph - N/A   Clear
4:35 AM 44.2 °F 42.7 °F 37.6 °F 77% 30.21 in 10.0 mi North 3.5 mph - N/A   Clear
4:55 AM 42.6 °F 39.9 °F 37.4 °F 82% 30.22 in 10.0 mi NNE 4.6 mph - N/A   Clear
5:15 AM 42.8 °F 39.3 °F 37.4 °F 81% 30.23 in 10.0 mi NNE 5.8 mph - N/A   Clear
5:35 AM 44.6 °F 41.4 °F 37.4 °F 76% 30.24 in 10.0 mi NNE 5.8 mph - N/A   Clear
5:55 AM 44.4 °F 42.9 °F 39.2 °F 82% 30.24 in 10.0 mi NNE 3.5 mph - N/A   Clear
6:15 AM 43.0 °F 41.3 °F 38.3 °F 84% 30.24 in 10.0 mi NE 3.5 mph - N/A   Clear
6:35 AM 41.5 °F 38.6 °F 37.8 °F 86% 30.23 in 10.0 mi NNE 4.6 mph - N/A   Clear
6:55 AM 41.0 °F 39.0 °F 37.6 °F 88% 30.23 in 10.0 mi NNE 3.5 mph - N/A   Clear
7:15 AM 41.0 °F 39.0 °F 38.1 °F 89% 30.24 in 10.0 mi NNE 3.5 mph - N/A   Clear
7:35 AM 41.2 °F 38.2 °F 38.3 °F 89% 30.24 in 10.0 mi NNE 4.6 mph - N/A   Clear
7:55 AM 41.9 °F 39.0 °F 39.0 °F 90% 30.25 in 10.0 mi NE 4.6 mph - N/A   Clear
8:15 AM 44.8 °F 43.3 °F 41.0 °F 87% 30.25 in 10.0 mi NE 3.5 mph - N/A   Clear
8:35 AM 48.4 °F - 43.0 °F 82% 30.26 in 10.0 mi NE 4.6 mph - N/A   Clear
8:55 AM 51.4 °F - 43.9 °F 75% 30.27 in 10.0 mi NE 5.8 mph - N/A   Clear
9:15 AM 54.7 °F - 44.2 °F 68% 30.27 in 10.0 mi NE 8.1 mph - N/A   Clear
9:35 AM 57.0 °F - 41.9 °F 57% 30.27 in 10.0 mi NE 9.2 mph - N/A   Clear
9:55 AM 59.4 °F - 40.5 °F 50% 30.27 in 10.0 mi ENE 12.7 mph 16.1 mph N/A   Clear
10:15 AM 61.3 °F - 38.5 °F 43% 30.27 in 10.0 mi ENE 12.7 mph - N/A   Clear
10:35 AM 63.0 °F - 36.5 °F 37% 30.27 in 10.0 mi ENE 10.4 mph - N/A   Clear
10:55 AM 64.8 °F - 35.8 °F 34% 30.27 in 10.0 mi NE 10.4 mph - N/A   Clear
11:15 AM 66.0 °F - 34.3 °F 31% 30.27 in 10.0 mi NE 9.2 mph 16.1 mph N/A   Clear
11:35 AM - - - N/A% - - North - - N/A   Unknown
11:55 AM - - - N/A% - - North - - N/A   Unknown
12:15 PM 68.9 °F - 32.9 °F 26% 30.26 in - NE 9.2 mph - N/A   Unknown
12:35 PM 70.0 °F - 32.5 °F 25% 30.25 in 10.0 mi NE 4.6 mph - N/A   Clear
12:55 PM 69.8 °F - 32.0 °F 25% 30.24 in 10.0 mi NE 8.1 mph - N/A   Clear
1:15 PM 71.6 °F - 31.5 °F 23% 30.23 in 10.0 mi ENE 6.9 mph - N/A   Clear
1:35 PM 71.6 °F - 32.0 °F 23% 30.22 in 10.0 mi NNE 4.6 mph - N/A   Clear
1:55 PM 73.4 °F - 31.8 °F 22% 30.21 in 10.0 mi Calm Calm - N/A   Clear
2:15 PM 73.4 °F - 31.3 °F 21% 30.20 in 10.0 mi NE 8.1 mph - N/A   Clear
2:35 PM 73.9 °F - 32.0 °F 21% 30.19 in 10.0 mi North 8.1 mph - N/A   Clear
2:55 PM 74.1 °F - 31.5 °F 21% 30.17 in 10.0 mi Calm Calm - N/A   Clear
3:15 PM 74.3 °F - 31.8 °F 21% 30.17 in 10.0 mi Calm Calm - N/A   Clear
3:35 PM 74.8 °F - 32.2 °F 21% 30.16 in 10.0 mi NNE 5.8 mph - N/A   Clear
3:55 PM 74.7 °F - 32.5 °F 21% 30.16 in 10.0 mi NNW 4.6 mph - N/A   Clear
4:15 PM 74.7 °F - 32.9 °F 22% 30.15 in 10.0 mi Calm Calm - N/A   Clear
4:35 PM 74.5 °F - 32.9 °F 22% 30.15 in 10.0 mi NNE 4.6 mph - N/A   Clear
4:55 PM 73.4 °F - 32.0 °F 22% 30.14 in 10.0 mi North 3.5 mph - N/A   Clear
5:15 PM 73.6 °F - 32.5 °F 22% 30.14 in 10.0 mi Calm Calm - N/A   Clear
5:35 PM 72.9 °F - 32.0 °F 22% 30.14 in 10.0 mi North 3.5 mph - N/A   Clear
5:55 PM 72.0 °F - 32.2 °F 23% 30.14 in 10.0 mi Calm Calm - N/A   Clear
6:15 PM 70.0 °F - 33.8 °F 26% 30.14 in 10.0 mi Calm Calm - N/A   Clear
6:35 PM 66.0 °F - 38.1 °F 36% 30.15 in 10.0 mi SSE 6.9 mph - N/A   Clear
6:55 PM 61.7 °F - 41.2 °F 47% 30.15 in 10.0 mi SSE 4.6 mph - N/A   Clear
7:15 PM 59.2 °F - 41.9 °F 53% 30.15 in 10.0 mi SE 4.6 mph - N/A   Clear
7:35 PM 57.2 °F - 41.9 °F 57% 30.15 in 10.0 mi SE 3.5 mph - N/A   Clear
7:55 PM 55.8 °F - 41.9 °F 60% 30.15 in 10.0 mi Calm Calm - N/A   Clear
10:35 PM 47.8 °F - 42.1 °F 80% 30.16 in 10.0 mi Calm Calm - N/A   Clear
10:55 PM 47.1 °F - 42.6 °F 84% 30.16 in 10.0 mi Calm Calm - N/A   Clear
11:15 PM 47.1 °F - 42.8 °F 85% 30.16 in 10.0 mi Calm Calm - N/A   Clear
11:35 PM 47.1 °F - 43.0 °F 86% 30.16 in 10.0 mi Calm Calm - N/A   Clear
11:55 PM 46.0 °F - 42.3 °F 87% 30.15 in 10.0 mi Calm Calm - N/A   Clear